Temp
56 57 57 56 55 55 55 54 55 56 56 58 59 59 59 60 60 60 55 62 64 66 67 68 68 68 69 70 69 69 69 69 69 69 70 70 70 70 70 70 71 71 71
56 56 55 55 54 54 54 54 54 54 55 56 57 58 58 59 61 60 55 56 62 63 64 65 66 67 68 68 68 68 67 67 68 68 69 69 70 70 70 70 70 71 71
57 56 54 53 53 54 55 54 54 54 53 57 55 57 59 59 59 61 60 55 57 61 62 63 63 64 65 66 67 67 67 67 67 68 68 69 69 69 69 69 69 69 69
58 55 54 53 54 53 53 52 52 52 51 52 52 53 56 59 60 59 60 58 56 56 59 60 60 61 62 63 64 65 65 65 65 66 67 68 67 67 68 68 68 68 69
60 55 54 53 54 52 52 52 52 51 50 50 53 53 54 56 57 62 58 58 56 56 54 58 58 58 59 60 61 62 63 63 64 65 66 66 66 66 66 67 67 67 68
59 55 54 54 54 52 51 51 50 51 50 50 57 56 53 55 56 55 56 60 57 57 55 54 51 51 58 59 59 60 61 62 63 63 65 67 66 65 66 66 66 67 67
59 55 53 54 53 51 51 52 50 49 49 49 47 49 51 54 54 54 55 55 56 56 54 53 51 50 51 59 60 58 59 60 62 63 63 65 65 66 65 65 65 66 65
58 57 53 53 53 51 51 51 49 47 48 49 45 44 44 48 51 54 54 55 53 53 54 55 52 52 49 48 50 57 57 57 60 62 62 63 64 65 64 64 65 64 65
57 56 54 52 51 50 49 49 48 48 44 47 48 45 41 41 43 50 51 52 52 51 51 52 53 52 51 48 51 52 56 55 57 60 61 62 63 63 63 63 63 63 64
56 56 54 53 51 50 49 48 52 48 46 43 46 52 47 45 40 39 47 49 51 52 50 49 50 51 51 48 51 53 54 54 56 58 60 61 62 63 63 62 61 62 62
56 56 54 52 51 50 49 49 48 47 46 45 44 44 45 44 44 41 38 42 47 49 48 48 48 48 50 48 46 49 55 54 56 57 59 60 61 62 62 61 60 60 61
53 55 55 52 51 50 49 49 49 47 46 46 45 44 44 42 42 40 38 40 42 46 48 48 47 47 47 46 50 54 54 54 55 56 58 59 60 60 61 60 59 59 59
51 51 52 51 50 51 51 50 48 47 46 45 44 44 45 44 45 44 41 42 39 42 45 47 47 47 50 46 46 52 53 54 54 55 57 58 58 58 57 57 58 58 58
49 51 50 51 51 51 50 50 47 47 46 45 44 44 44 44 45 44 43 39 39 40 41 45 46 45 46 45 47 52 45 53 53 54 55 56 56 56 55 55 55 56 56
53 50 49 49 49 49 49 48 46 46 46 45 44 44 44 44 44 44 43 42 40 36 38 41 41 45 44 45 47 45 43 49 52 54 54 53 53 53 53 53 53 53 54
49 49 48 48 48 48 48 46 44 45 45 44 46 44 43 44 44 43 42 42 41 41 37 41 44 43 45 50 47 46 46 49 52 53 53 53 52 52 52 52 52 52 52
48 48 48 47 47 47 46 45 44 45 44 43 43 43 43 44 42 42 42 41 40 39 38 42 44 45 45 43 45 45 46 46 45 51 52 52 52 51 51 51 51 51 51
47 47 47 47 46 46 45 44 43 43 42 42 42 42 42 48 42 41 40 40 41 40 40 38 42 42 41 45 45 42 47 49 46 49 51 52 52 52 51 50 50 50 50
46 46 46 44 44 44 43 43 43 43 42 42 42 41 42 41 40 39 39 38 39 43 40 38 38 39 40 41 43 45 44 44 46 49 51 52 52 52 51 50 50 49 49
44 44 45 45 45 44 44 43 43 40 40 42 43 43 43 42 42 41 41 39 41 38 38 37 37 38 39 40 41 41 41 38 39 46 48 49 50 50 50 50 49 49 48
45 44 44 43 43 44 46 42 41 40 39 40 41 43 44 44 45 46 44 40 41 40 39 38 37 37 37 38 38 42 41 42 44 43 40 40 41 43 43 48 47 47 47
43 43 42 42 41 46 48 48 47 39 39 39 38 40 41 43 43 45 45 45 44 39 37 36 36 35 36 38 40 39 39 37 35 38 37 40 40 36 40 39 44 46 46
42 41 41 42 41 41 47 47 47 42 39 38 37 38 40 43 43 42 43 44 44 44 44 40 36 36 36 39 39 37 37 36 36 39 37 35 35 37 40 44 46 47 48
40 41 41 40 39 41 46 46 46 41 38 37 37 38 40 41 41 41 41 40 41 41 42 42 41 40 40 41 41 40 39 38 39 39 38 32 32 36 38 39 46 48 47
41 40 40 38 37 39 44 45 45 38 37 36 38 40 42 42 44 45 41 37 37 39 43 44 44 44 45 45 45 41 36 34 33 35 37 34 30 32 34 34 38 45 46
39 38 39 39 40 40 44 45 45 40 36 36 38 40 43 42 44 45 41 39 36 37 39 40 41 41 43 42 44 41 39 34 33 32 34 33 31 32 29 32 35 36 36
MSLP
1020.14 1020.01 1019.93 1019.93 1019.88 1019.73 1019.64 1019.47 1019.10 1018.93 1018.62 1018.18 1017.90 1017.70 1017.51 1017.25 1017.01 1017.16 1017.43 1017.24 1017.35 1017.27 1017.04 1016.87 1016.72 1016.61 1016.46 1016.24 1016.25 1016.25 1016.24 1016.19 1016.08 1015.92 1015.73 1015.60 1015.41 1015.30 1015.19 1015.09 1015.02 1014.98 1014.95
1020.16 1020.19 1020.20 1020.19 1020.14 1019.97 1019.75 1019.53 1019.23 1019.01 1018.77 1018.38 1018.10 1017.74 1017.54 1017.38 1017.09 1017.21 1017.66 1017.68 1017.61 1017.65 1017.52 1017.28 1017.07 1016.85 1016.74 1016.57 1016.55 1016.48 1016.53 1016.47 1016.25 1015.97 1015.70 1015.56 1015.34 1015.20 1015.08 1014.92 1014.81 1014.71 1014.66
1020.25 1020.26 1020.33 1020.36 1020.25 1020.00 1019.84 1019.60 1019.29 1019.01 1018.90 1018.51 1018.43 1017.95 1017.59 1017.39 1017.36 1017.25 1017.38 1017.81 1017.86 1017.86 1017.81 1017.69 1017.54 1017.33 1017.25 1017.01 1016.82 1016.70 1016.65 1016.52 1016.29 1015.99 1015.71 1015.51 1015.31 1015.16 1014.99 1014.91 1014.85 1014.76 1014.63
1020.21 1020.38 1020.42 1020.40 1020.19 1020.10 1020.00 1019.83 1019.65 1019.27 1019.05 1018.88 1018.69 1018.18 1017.78 1017.46 1017.22 1017.28 1017.41 1017.60 1017.83 1018.07 1017.97 1017.92 1017.92 1017.79 1017.64 1017.45 1017.25 1017.09 1016.95 1016.80 1016.53 1016.16 1015.91 1015.61 1015.52 1015.40 1015.22 1015.08 1015.03 1014.92 1014.78
1020.14 1020.37 1020.42 1020.38 1020.25 1020.26 1020.17 1020.08 1019.87 1019.57 1019.31 1018.99 1018.68 1018.17 1017.75 1017.60 1017.46 1017.25 1017.41 1017.57 1017.77 1017.88 1018.04 1018.03 1018.05 1018.02 1017.89 1017.75 1017.56 1017.35 1017.14 1016.94 1016.72 1016.42 1016.04 1015.75 1015.66 1015.56 1015.46 1015.25 1015.15 1015.04 1014.87
1019.95 1020.21 1020.34 1020.25 1020.19 1020.37 1020.35 1020.22 1020.12 1019.79 1019.39 1019.12 1018.66 1018.13 1017.65 1017.40 1017.33 1017.44 1017.42 1017.37 1017.58 1017.70 1017.84 1017.92 1018.04 1018.06 1017.87 1017.75 1017.65 1017.52 1017.28 1017.02 1016.74 1016.46 1016.15 1015.73 1015.68 1015.67 1015.57 1015.44 1015.28 1015.08 1014.87
1019.84 1020.07 1020.24 1020.17 1020.14 1020.38 1020.38 1020.23 1020.09 1020.05 1019.68 1019.15 1018.97 1018.28 1017.33 1017.10 1017.26 1017.29 1017.14 1017.21 1017.33 1017.43 1017.62 1017.78 1017.91 1017.91 1017.88 1017.65 1017.46 1017.60 1017.41 1017.11 1016.77 1016.43 1016.12 1015.76 1015.61 1015.50 1015.63 1015.56 1015.38 1015.20 1014.98
1019.75 1019.93 1020.12 1020.18 1020.18 1020.31 1020.36 1020.27 1020.21 1020.34 1020.02 1019.54 1019.65 1019.27 1018.51 1017.85 1017.63 1017.19 1017.08 1017.16 1017.24 1017.27 1017.40 1017.43 1017.50 1017.60 1017.71 1017.73 1017.66 1017.50 1017.40 1017.22 1016.82 1016.38 1016.06 1015.79 1015.56 1015.41 1015.49 1015.48 1015.28 1015.16 1014.97
1019.61 1019.79 1019.97 1020.12 1020.14 1020.18 1020.32 1020.25 1020.20 1020.30 1020.49 1020.04 1019.74 1019.85 1019.36 1019.14 1018.56 1017.35 1017.14 1017.06 1017.13 1017.19 1017.17 1017.19 1017.16 1017.16 1017.29 1017.45 1017.44 1017.41 1017.26 1017.28 1016.90 1016.42 1016.06 1015.70 1015.48 1015.39 1015.42 1015.44 1015.30 1015.14 1014.91
1019.39 1019.56 1019.75 1019.91 1020.04 1020.09 1020.20 1020.14 1020.01 1020.09 1020.35 1020.51 1020.07 1019.53 1019.46 1019.51 1019.50 1018.77 1017.68 1017.37 1017.12 1017.09 1016.99 1016.86 1016.81 1016.77 1016.83 1017.00 1017.13 1017.23 1017.21 1017.18 1016.88 1016.48 1016.15 1015.80 1015.46 1015.24 1015.21 1015.30 1015.32 1015.14 1014.98
1019.18 1019.34 1019.52 1019.69 1019.86 1019.92 1019.97 1019.94 1019.91 1020.02 1020.12 1020.29 1020.35 1020.20 1019.73 1019.39 1019.30 1019.43 1018.63 1017.97 1017.43 1017.09 1016.77 1016.65 1016.49 1016.42 1016.36 1016.53 1016.73 1016.87 1016.84 1016.92 1016.72 1016.42 1016.14 1015.82 1015.48 1015.14 1015.00 1015.19 1015.26 1015.12 1014.95
1019.27 1019.21 1019.35 1019.57 1019.65 1019.67 1019.76 1019.74 1019.74 1019.80 1019.88 1019.91 1019.92 1020.01 1019.97 1019.81 1019.41 1019.36 1019.07 1018.19 1017.80 1017.05 1016.46 1016.25 1016.20 1015.97 1015.88 1016.01 1016.14 1016.26 1016.50 1016.67 1016.58 1016.31 1016.05 1015.72 1015.43 1015.29 1015.01 1015.06 1015.17 1015.12 1014.86
1019.59 1019.64 1019.59 1019.71 1019.70 1019.52 1019.41 1019.34 1019.46 1019.55 1019.61 1019.64 1019.57 1019.58 1019.37 1019.25 1019.03 1018.93 1018.94 1018.42 1018.05 1016.93 1016.40 1015.83 1015.60 1015.35 1015.23 1015.37 1015.48 1015.63 1015.91 1016.13 1016.17 1016.04 1015.77 1015.48 1015.24 1015.16 1015.19 1015.05 1014.92 1014.85 1014.75
1019.85 1019.75 1019.75 1019.64 1019.52 1019.39 1019.28 1019.16 1019.24 1019.23 1019.18 1019.13 1019.04 1018.98 1018.82 1018.65 1018.55 1018.48 1018.46 1018.50 1017.86 1017.25 1016.44 1015.80 1015.14 1014.87 1014.62 1014.67 1014.77 1014.97 1015.35 1015.51 1015.63 1015.60 1015.44 1015.29 1015.13 1014.97 1015.04 1015.00 1014.82 1014.66 1014.48
1019.89 1019.90 1019.84 1019.84 1019.67 1019.52 1019.36 1019.21 1019.20 1019.11 1018.94 1018.76 1018.57 1018.42 1018.33 1018.10 1017.98 1017.82 1017.79 1017.93 1018.08 1017.37 1016.20 1015.41 1015.33 1014.59 1014.41 1014.30 1014.28 1014.41 1014.71 1014.84 1014.91 1014.87 1014.84 1014.86 1014.84 1014.71 1014.64 1014.58 1014.48 1014.40 1014.22
1020.01 1020.07 1020.04 1019.94 1019.82 1019.55 1019.35 1019.28 1019.15 1018.98 1018.77 1018.52 1018.28 1018.12 1017.92 1017.71 1017.49 1017.33 1017.27 1017.25 1017.29 1017.12 1016.10 1015.57 1015.13 1014.88 1014.54 1014.16 1013.90 1013.74 1013.84 1013.92 1014.05 1014.09 1014.15 1014.12 1014.12 1014.12 1014.05 1014.01 1013.94 1013.86 1013.81
1020.12 1020.11 1020.06 1019.95 1019.80 1019.60 1019.42 1019.27 1019.11 1018.87 1018.68 1018.41 1018.15 1017.93 1017.61 1017.32 1017.13 1016.91 1016.76 1016.69 1016.65 1016.51 1015.72 1014.84 1014.81 1014.54 1014.25 1013.93 1013.58 1013.34 1013.21 1013.23 1013.26 1013.24 1013.21 1013.18 1013.27 1013.31 1013.32 1013.32 1013.32 1013.27 1013.23
1020.15 1020.11 1020.00 1019.88 1019.75 1019.59 1019.44 1019.31 1019.13 1018.87 1018.62 1018.38 1018.00 1017.73 1017.44 1016.99 1016.81 1016.62 1016.48 1016.37 1016.08 1015.82 1015.54 1014.45 1014.48 1014.26 1013.99 1013.55 1013.14 1012.87 1012.68 1012.37 1012.29 1012.33 1012.28 1012.20 1012.24 1012.30 1012.44 1012.55 1012.58 1012.63 1012.59
1020.25 1020.12 1020.01 1019.88 1019.71 1019.56 1019.39 1019.22 1019.03 1018.75 1018.54 1018.31 1017.95 1017.59 1017.19 1016.85 1016.63 1016.30 1016.10 1015.98 1015.70 1015.25 1015.03 1014.47 1013.78 1013.73 1013.29 1013.04 1012.65 1012.35 1012.09 1011.86 1011.61 1011.43 1011.43 1011.51 1011.49 1011.41 1011.49 1011.70 1011.80 1011.84 1011.79
1020.19 1020.08 1019.94 1019.79 1019.58 1019.33 1019.10 1018.85 1018.68 1018.56 1018.39 1018.09 1017.76 1017.35 1016.89 1016.51 1016.15 1015.82 1015.58 1015.43 1015.09 1014.93 1014.66 1014.26 1013.68 1013.38 1013.11 1012.58 1012.21 1011.93 1011.52 1011.40 1011.21 1011.07 1010.87 1010.76 1010.83 1010.70 1010.66 1010.75 1010.85 1010.90 1010.96
1020.01 1019.88 1019.71 1019.54 1019.30 1019.04 1018.69 1018.41 1018.27 1018.19 1018.07 1017.80 1017.48 1017.05 1016.60 1016.11 1015.67 1015.32 1015.05 1014.87 1014.71 1014.37 1014.04 1013.66 1013.16 1012.78 1012.51 1012.18 1011.83 1011.25 1010.86 1010.68 1010.22 1010.29 1010.13 1010.08 1010.21 1010.19 1010.09 1010.15 1010.20 1010.26 1010.21
1019.78 1019.66 1019.50 1019.34 1019.06 1018.75 1018.32 1018.07 1017.90 1017.75 1017.59 1017.40 1017.09 1016.63 1016.26 1015.81 1015.31 1015.00 1014.78 1014.57 1014.34 1013.96 1013.58 1013.20 1012.72 1012.24 1011.79 1011.51 1011.18 1010.84 1010.47 1010.12 1009.56 1009.56 1009.56 1009.12 1009.26 1009.36 1009.43 1009.74 1009.80 1009.77 1009.71
1019.53 1019.38 1019.18 1019.00 1018.73 1018.35 1017.96 1017.65 1017.43 1017.24 1017.11 1016.85 1016.53 1016.16 1015.74 1015.43 1014.94 1014.50 1014.12 1013.75 1013.49 1013.19 1012.85 1012.48 1011.95 1011.66 1011.06 1010.82 1010.52 1010.11 1009.87 1009.49 1008.79 1008.69 1008.80 1008.54 1008.62 1008.61 1008.81 1008.87 1008.96 1008.97 1008.82
1019.32 1019.14 1018.84 1018.59 1018.35 1017.96 1017.53 1017.17 1016.90 1016.62 1016.38 1016.15 1015.93 1015.57 1014.89 1014.47 1014.22 1013.82 1013.36 1012.93 1012.57 1012.35 1011.72 1011.34 1010.83 1010.20 1009.95 1009.61 1009.52 1008.99 1008.64 1008.34 1008.04 1007.86 1008.19 1008.06 1008.14 1007.99 1008.25 1008.47 1008.31 1008.16 1008.18
1018.93 1018.70 1018.51 1018.18 1017.94 1017.51 1016.98 1016.56 1016.29 1016.02 1015.80 1015.51 1015.19 1014.78 1014.26 1013.59 1013.31 1012.96 1012.49 1012.20 1011.85 1011.21 1010.83 1010.28 1009.78 1009.25 1008.83 1008.55 1008.20 1007.90 1007.51 1007.35 1006.77 1006.82 1007.00 1007.22 1007.58 1007.64 1008.02 1008.21 1008.01 1007.88 1007.82
1018.63 1018.30 1017.98 1017.71 1017.40 1016.87 1016.33 1015.95 1015.68 1015.44 1015.17 1014.89 1014.50 1013.96 1013.61 1013.08 1012.53 1012.12 1011.68 1011.29 1010.72 1010.19 1009.74 1009.03 1008.47 1008.02 1007.73 1007.43 1007.22 1006.90 1006.32 1006.05 1006.18 1006.02 1005.86 1006.58 1006.97 1007.41 1007.94 1007.61 1007.60 1007.87 1007.89
Wind_Speed
3 4 4 4 4 4 4 5 5 5 6 6 6 5 5 5 5 4 3 10 7 6 6 9 8 7 7 9 9 9 9 9 9 8 9 9 8 7 8 9 9 9 9
3 3 3 3 4 4 4 4 4 4 5 4 6 6 5 5 3 4 3 4 8 6 6 6 7 8 8 9 10 11 10 10 10 9 8 9 10 9 8 8 8 9 10
4 4 3 3 3 3 5 5 4 4 5 5 6 6 4 4 4 3 3 4 5 7 7 7 8 7 8 7 6 6 7 8 9 11 11 10 9 12 10 8 7 7 6
3 4 2 2 3 3 3 4 4 4 4 4 4 5 4 4 1 2 2 3 3 3 4 6 5 6 7 7 8 8 8 9 10 10 10 7 9 11 11 11 11 12 11
1 2 2 2 3 3 3 3 3 3 3 4 5 5 3 2 2 2 2 3 3 2 2 2 1 1 3 6 7 7 8 8 9 10 11 8 7 9 10 12 12 12 12
2 0 3 2 1 3 3 3 3 4 3 2 6 6 5 3 2 3 2 3 3 2 1 1 1 3 2 2 5 7 8 8 8 8 8 7 7 8 11 11 11 11 10
1 1 2 3 2 2 4 3 2 5 4 3 4 4 4 5 4 3 4 4 4 4 3 2 1 1 3 7 7 5 8 8 9 8 8 8 8 7 8 10 10 10 8
2 2 3 3 3 2 5 4 3 3 3 3 2 2 4 4 3 5 3 3 3 2 3 4 4 3 3 2 3 6 7 8 8 8 8 8 8 6 6 8 9 8 9
2 2 3 3 3 2 3 3 2 2 2 4 2 1 3 2 4 3 2 2 3 3 4 4 5 5 4 3 5 6 6 7 9 8 8 8 7 6 6 7 9 9 9
4 3 3 3 4 3 4 3 3 1 1 4 4 2 2 3 1 5 3 3 5 4 5 4 4 5 5 4 6 7 9 9 10 9 9 10 10 9 7 7 9 10 8
4 4 3 3 3 3 4 4 4 3 2 3 3 3 2 2 4 4 5 4 4 4 5 5 5 4 6 5 5 6 12 12 11 11 11 11 12 12 10 8 9 10 9
1 2 3 3 4 4 4 4 4 4 4 4 3 4 3 3 3 3 4 4 6 5 4 4 5 5 5 5 8 11 9 12 13 13 13 13 13 13 13 11 11 11 11
3 4 4 4 3 4 4 4 4 4 5 4 5 5 4 4 3 4 3 8 5 4 4 5 5 5 5 5 6 10 12 14 14 15 15 15 14 14 13 14 13 13 12
3 4 4 5 5 5 5 4 3 4 5 5 7 6 5 5 4 4 5 3 9 6 3 11 4 5 5 5 8 12 7 15 15 17 17 16 16 15 15 15 15 15 15
3 5 5 5 6 6 6 6 3 5 5 5 6 6 5 4 5 5 4 4 5 9 10 5 3 4 4 4 7 6 7 14 17 18 18 18 18 18 17 17 16 16 17
3 4 4 5 6 6 6 5 5 5 6 4 5 6 5 4 5 4 4 4 5 8 13 4 7 4 5 5 7 8 10 16 18 19 19 20 20 20 20 19 18 17 18
4 4 5 5 6 6 6 6 6 7 7 7 6 6 7 6 4 4 4 4 4 5 12 10 8 7 8 7 6 6 8 9 8 22 22 22 22 22 21 21 20 19 18
4 4 5 5 6 6 6 6 7 6 7 7 7 7 7 7 6 5 4 6 6 6 8 16 10 7 8 8 9 7 9 9 10 18 24 23 22 22 22 21 21 20 20
4 5 5 6 6 6 6 6 6 7 6 7 8 8 8 7 8 5 5 5 5 6 6 8 10 5 6 4 9 10 9 9 7 13 20 24 23 23 22 22 22 22 21
4 5 5 6 6 6 6 6 6 6 6 7 8 9 9 9 10 8 6 6 7 6 8 9 10 9 7 6 6 9 10 4 6 6 13 18 18 20 22 24 24 22 21
5 6 6 6 6 6 6 6 5 6 6 8 9 10 10 10 14 12 8 7 8 8 8 9 10 9 9 8 9 8 10 9 10 7 8 8 6 7 8 18 17 19 20
6 6 6 6 7 7 14 16 13 6 6 8 9 10 10 14 11 17 19 21 18 11 11 9 10 10 11 10 10 10 10 10 11 5 6 10 7 6 6 5 14 20 20
6 6 6 6 7 7 17 19 19 8 7 8 9 9 8 9 14 12 17 21 20 21 21 15 14 13 14 13 12 12 12 12 12 8 4 7 4 7 5 8 18 20 19
6 6 6 7 6 8 18 20 20 9 7 7 7 10 12 11 11 14 13 14 12 12 15 11 14 15 14 13 12 13 14 14 12 9 6 8 4 7 4 4 16 17 15
5 5 6 7 7 9 17 20 17 7 7 7 8 9 12 11 16 21 15 12 12 13 15 23 24 27 27 27 24 13 11 9 9 9 9 7 4 2 2 4 4 10 13
6 5 6 7 12 12 17 18 14 6 8 8 8 9 17 18 23 23 15 12 14 14 14 16 14 16 18 15 24 18 12 9 8 7 6 8 4 3 1 3 3 3 2
Wind_Direction
14 359 8 15 10 1 1 343 352 343 336 337 337 332 326 326 346 85 99 87 65 41 31 27 28 27 17 13 22 25 18 3 358 352 345 350 345 327 315 303 302 309 314
21 16 8 5 13 355 336 328 326 336 319 330 332 328 328 333 37 46 134 97 97 67 39 29 15 13 13 9 21 20 19 4 357 356 338 337 336 322 311 316 302 296 292
17 357 357 24 352 332 338 344 337 353 345 340 341 324 336 346 355 40 76 149 117 100 75 46 35 34 25 16 15 13 12 356 346 347 7 10 18 26 32 27 13 355 347
31 338 2 11 339 345 335 340 331 346 340 342 323 301 317 323 284 47 64 57 106 122 104 89 46 34 26 16 13 7 4 355 345 334 354 350 11 20 19 23 24 21 17
74 346 351 328 2 336 331 340 333 338 326 323 312 300 287 279 340 2 82 83 123 50 117 128 147 89 28 3 354 352 348 347 344 334 323 359 18 12 8 10 6 7 2
142 16 318 322 343 328 335 346 336 321 301 320 315 295 271 239 206 230 227 181 170 165 252 49 239 221 245 358 331 340 336 335 331 327 319 302 336 5 350 350 350 348 2
282 294 293 313 326 342 308 300 319 330 314 341 335 328 300 208 211 232 209 205 196 185 173 235 277 330 324 322 306 320 322 324 324 322 322 306 298 307 319 319 319 326 346
252 228 269 298 318 325 323 321 1 326 300 11 343 284 330 349 335 247 229 199 205 189 213 231 216 234 259 275 266 299 294 316 315 315 316 311 306 306 309 319 312 311 318
245 233 277 290 291 293 271 286 292 323 302 315 328 170 345 314 329 318 239 229 239 213 233 241 222 223 220 237 279 284 273 298 302 302 304 301 294 294 299 309 314 314 309
221 244 238 259 277 276 286 276 277 222 323 278 319 257 219 177 277 323 331 330 268 246 246 243 235 233 214 212 241 246 260 274 288 294 296 295 288 283 287 300 308 308 305
216 216 230 256 274 269 264 266 286 283 245 236 233 298 304 277 230 216 284 290 329 266 260 240 231 228 223 210 217 237 261 258 277 287 291 292 291 286 283 290 298 298 296
236 230 220 232 252 261 268 268 270 263 259 260 263 261 242 239 277 248 274 278 264 268 266 264 234 228 227 208 211 225 245 253 272 280 285 286 286 289 292 287 285 289 291
7 21 19 345 318 298 282 261 258 263 263 250 247 246 246 243 235 236 250 277 275 281 269 252 238 226 223 205 205 213 231 251 263 270 278 281 281 281 284 285 281 280 283
25 14 353 338 326 322 314 304 285 265 252 251 254 247 248 247 246 233 237 242 287 273 286 263 254 236 217 201 203 212 210 235 252 266 270 277 279 274 270 274 276 277 275
12 17 352 349 340 335 328 321 303 288 281 271 264 259 248 245 243 243 237 211 228 285 290 269 291 304 257 212 214 199 195 220 243 257 262 269 273 270 264 264 266 269 272
11 354 346 339 327 321 319 324 311 301 301 291 284 284 275 259 257 250 240 236 221 252 271 292 285 289 283 264 236 211 210 218 234 249 263 266 266 267 262 260 261 262 266
3 353 342 332 326 329 330 330 318 307 310 308 305 294 289 285 273 264 252 243 242 235 265 271 273 283 282 268 261 242 223 223 224 239 251 259 259 259 260 260 259 260 260
349 334 331 331 327 326 326 320 313 311 309 306 300 301 290 296 291 284 275 261 254 244 265 281 277 272 259 270 275 255 245 231 224 232 244 250 253 256 255 258 257 257 257
332 331 341 330 322 314 308 299 294 296 311 306 299 297 295 289 285 277 272 273 271 280 277 280 288 272 260 256 273 274 272 254 248 241 242 253 258 257 254 254 255 254 254
327 314 305 297 293 289 284 284 282 305 294 293 294 291 289 286 282 275 275 275 286 287 284 283 287 290 285 263 247 269 272 256 253 252 253 250 251 256 257 256 254 256 255
285 283 289 292 287 289 287 286 282 281 287 293 293 291 292 291 295 296 298 294 297 298 290 281 278 280 279 283 278 278 275 274 264 232 241 242 245 245 240 255 255 257 249
290 287 289 286 290 290 294 302 309 295 285 283 290 295 293 291 292 303 300 297 293 290 288 289 290 285 284 281 280 279 277 273 275 210 235 246 227 226 233 226 235 246 243
279 285 285 282 279 282 298 305 308 302 290 283 281 283 287 294 295 283 278 281 282 279 276 276 274 272 276 272 274 274 266 264 261 253 214 251 195 233 237 235 232 241 249
282 276 275 277 279 283 295 301 305 296 276 267 262 272 274 277 272 279 280 277 275 271 268 267 269 272 268 271 263 261 263 265 263 256 212 236 198 236 213 229 247 247 240
272 270 275 276 276 280 286 292 299 294 281 276 278 278 291 285 283 290 291 287 279 275 278 273 273 276 278 277 273 277 265 256 255 252 219 212 201 181 212 242 241 269 233
269 266 270 271 271 278 278 286 298 289 289 289 283 283 289 291 291 295 294 290 287 284 283 277 275 271 272 272 272 270 262 249 240 246 201 207 159 136 217 236 191 206 213